Location: Grossmotten
(48.5500°N, 15.3833°E)
Time: 10:36:57
(UTC+00:00)

STARLINK-52 - Pass Details

Date: 15 November 2019
Orbit: 443 x 445 km, 53.0° (Epoch: 09 December)

Event Time Altitude Azimuth Distance (km) Brightness Sun altitude
Exits shadow 03:55:12 66° 33° (NNE) 491 3.4 -21.5°
Drops below altitude 10° 03:58:20 10° 63° (ENE) 1,570 6.8 -21.0°
Sets 04:00:28 0° 65° (ENE) 2,444 8.0 -20.6°
